This is the latest recevied weather packets stored in our database for station/object KB1WCR. If no packets are shown the sender has not sent any weather packets the latest 10 day(s).
| Time | Temp. | Humidity | Pressure | Rain* | Wind** | Luminosity | Snow |
|---|---|---|---|---|---|---|---|
| 1777976956 | 8.33° C | 88% | 1008.6 hPa | 0 mm | - | 52 W/m² | - |
| 1777976653 | 7.78° C | 89% | 1008.4 hPa | 0 mm | - | 34 W/m² | - |
| 1777976349 | 7.78° C | 89% | 1008.5 hPa | 0 mm | - | 28 W/m² | - |
| 1777976043 | 7.78° C | 88% | 1008.3 hPa | 0 mm | - | 25 W/m² | - |
| 1777975740 | 8.33° C | 88% | 1008.5 hPa | 0 mm | - | 22 W/m² | - |
| 1777975436 | 7.78° C | 88% | 1008.3 hPa | 0 mm | - | 19 W/m² | - |
| 1777975132 | 7.78° C | 89% | 1008.2 hPa | 0 mm | - | 16 W/m² | - |
| 1777974830 | 7.22° C | 90% | 1008.2 hPa | 0 mm | - | 13 W/m² | - |
| 1777974525 | 7.22° C | 89% | 1008.4 hPa | 0 mm | - | 10 W/m² | - |
| 1777974222 | 7.22° C | 89% | 1008.4 hPa | 0 mm | - | 8 W/m² | - |
| 1777973918 | 7.22° C | 89% | 1008.1 hPa | 0 mm | - | 6 W/m² | - |
| 1777973616 | 7.78° C | 88% | 1008.4 hPa | 0 mm | - | 4 W/m² | - |
| 1777973313 | 7.78° C | 87% | 1008.2 hPa | 0 mm | - | 2 W/m² | - |
| 1777973011 | 7.78° C | 87% | 1008.3 hPa | 0 mm | - | 1 W/m² | - |
| 1777972708 | 8.89° C | 85% | 1008.3 hPa | 0 mm | - | 1 W/m² | - |
| 1777972406 | 8.33° C | 86% | 1008.3 hPa | 0 mm | - | 0 W/m² | - |
| 1777972104 | 7.78° C | 88% | 1008.6 hPa | 0 mm | - | 0 W/m² | - |
| 1777971802 | 7.22° C | 89% | 1008.3 hPa | 0 mm | - | 0 W/m² | - |
| 1777971498 | 6.67° C | 90% | 1008.3 hPa | 0 mm | - | 0 W/m² | - |
| 1777971197 | 7.22° C | 89% | 1008.3 hPa | 0 mm | - | 0 W/m² | - |
| 1777970894 | 7.22° C | 89% | 1008.5 hPa | 0 mm | - | 0 W/m² | - |
| 1777970593 | 7.22° C | 89% | 1008.4 hPa | 0 mm | - | 0 W/m² | - |
| 1777970289 | 7.78° C | 89% | 1008.7 hPa | 0 mm | - | 0 W/m² | - |
| 1777969986 | 7.78° C | 87% | 1008.7 hPa | 0 mm | - | 0 W/m² | - |
| 1777969683 | 7.78° C | 86% | 1008.6 hPa | 0 mm | - | 0 W/m² | - |
* Rain latest hour (hover to see other rain measurements)
** Current wind speed in m/s (hover to see current wind gust speed)